Theta_e
333 335 334 333 333 334 345 340 341 335 340 339 336 335 336 338 351 347 347 352 353 347 349 348 351 355 353 346 349 349 364 356 353 354 352 351 358 353 359 359 354 354 368 370 372 370 365 366 364 362 359 363 360 358 355 353 354 355 352 362 350 350 349 350 349 348 344 343 346 344 346 350 349 355 352 353 351 351 352 349 348 346 347 347 353
334 334 335 334 333 334 343 343 338 336 339 337 340 342 343 339 343 347 348 349 347 348 354 355 356 350 348 348 346 354 365 359 352 354 351 351 360 367 363 357 375 374 375 377 377 369 368 367 362 360 362 364 362 362 359 364 366 357 351 353 354 349 348 350 350 349 344 341 340 342 346 348 349 348 349 350 351 352 350 349 349 347 346 346 353
336 337 337 337 336 345 338 338 339 338 339 338 341 342 344 345 354 356 350 350 348 350 357 357 359 359 352 352 351 350 357 364 355 354 354 354 356 359 366 372 372 369 373 374 370 366 366 366 364 362 362 361 366 364 362 360 359 354 356 351 349 350 350 353 354 353 344 346 346 346 341 341 350 352 355 352 349 349 351 350 350 348 346 345 349
334 337 336 336 337 346 337 337 341 340 341 339 340 343 345 363 361 363 359 354 356 355 358 358 359 367 368 369 361 359 357 362 360 359 356 359 359 356 361 371 369 363 365 365 365 367 368 367 365 361 361 368 368 365 362 357 359 358 354 352 350 346 349 351 355 355 351 348 344 344 350 342 336 342 349 359 356 353 350 348 349 348 347 345 345
337 336 337 337 337 339 340 342 341 341 340 341 340 340 342 342 351 365 367 364 365 368 360 367 369 366 372 373 372 369 361 357 353 353 353 357 355 356 352 359 367 365 364 364 364 366 371 372 369 365 363 364 357 356 360 357 356 356 355 354 352 349 348 351 353 353 352 354 348 347 342 339 339 343 344 349 350 346 348 348 348 347 346 345 344
338 339 340 339 339 339 342 342 342 342 341 342 342 342 342 343 346 354 362 359 355 363 360 364 370 367 367 367 365 363 362 356 352 352 350 348 348 353 355 356 357 360 360 365 365 363 367 365 368 365 361 362 359 353 352 356 356 355 354 354 351 353 352 351 349 355 353 354 354 352 348 341 344 348 341 336 355 348 348 347 346 345 346 345 344
337 337 338 339 341 341 341 342 343 342 343 344 344 343 343 345 349 353 358 365 358 365 364 368 367 367 361 356 360 360 358 358 361 358 356 353 355 356 361 360 359 357 359 365 366 368 368 367 370 368 363 360 361 357 353 351 351 350 352 353 352 352 356 351 351 351 354 352 352 352 352 350 347 343 339 342 338 347 348 346 345 347 346 344 343
335 336 338 340 341 339 340 341 343 343 344 343 342 343 344 353 350 354 358 357 355 358 367 368 364 364 364 360 358 357 355 358 360 360 358 364 368 363 359 359 360 362 359 364 365 365 366 368 370 365 366 358 359 357 355 353 351 351 353 357 357 364 364 355 354 354 349 351 353 352 352 351 348 347 345 342 341 339 342 348 349 348 347 346 345
336 336 338 338 339 339 340 341 342 342 343 343 342 343 344 345 355 357 357 361 358 365 363 367 368 366 366 361 363 361 358 358 365 365 363 360 356 358 358 356 360 362 362 367 367 365 373 365 366 362 358 360 360 360 359 357 354 353 358 358 359 356 357 361 358 356 355 352 350 352 350 349 349 348 347 346 342 339 339 342 344 348 348 347 346
335 336 338 339 339 341 343 342 342 342 342 343 344 345 343 344 353 355 361 360 360 365 364 367 369 371 368 363 360 365 360 360 360 357 361 361 355 355 359 364 355 362 365 372 371 367 364 366 361 357 355 354 359 360 358 355 354 356 356 361 365 357 355 359 353 353 355 357 355 352 351 351 349 348 347 345 344 344 340 341 343 342 341 345 346
334 334 336 338 340 341 340 340 343 343 342 341 342 344 344 345 350 350 356 358 359 364 365 364 366 368 358 352 353 351 354 355 358 362 358 356 351 350 359 363 362 364 370 368 362 364 367 368 357 356 354 357 362 360 357 356 355 353 355 363 361 356 353 356 355 356 357 357 355 354 352 350 347 347 347 347 344 340 340 340 342 344 343 342 345
333 334 334 337 340 339 339 339 341 342 341 340 345 345 346 351 348 353 362 362 356 355 360 358 361 361 357 354 355 351 352 351 351 354 354 351 351 351 352 356 363 361 366 362 368 361 364 364 360 359 359 358 355 355 354 354 356 357 358 362 354 357 359 357 351 353 355 355 353 351 352 353 351 347 348 349 348 347 346 344 343 345 344 342 344
330 334 335 335 336 338 338 337 340 343 344 342 347 346 342 345 352 353 356 362 362 357 361 362 363 361 358 356 357 354 354 356 358 364 360 353 351 351 366 365 365 362 361 357 361 359 359 360 361 360 361 360 361 361 363 365 362 357 355 354 352 356 360 358 354 351 348 345 345 347 350 351 349 349 349 349 348 347 350 346 346 347 341 342 343
332 332 338 341 337 338 340 338 341 340 337 342 345 349 341 340 351 350 354 362 366 363 361 357 359 358 359 357 356 358 356 357 362 354 350 355 367 359 355 355 357 358 356 359 360 357 361 359 360 360 361 362 363 366 365 364 363 358 357 356 356 358 359 357 353 348 347 345 344 342 344 347 348 349 349 348 350 352 345 344 344 344 345 342 344
333 334 336 337 338 339 342 340 348 345 338 339 345 343 347 353 347 356 356 360 363 360 363 360 356 358 359 353 355 353 353 356 361 359 360 365 354 349 352 354 352 354 354 357 355 352 352 362 352 354 351 352 354 357 349 351 363 365 362 361 360 359 358 356 352 348 343 342 342 342 343 343 343 345 347 348 348 347 346 346 347 340 340 342 342
333 335 336 337 339 340 344 347 345 343 348 339 341 343 344 348 353 351 354 354 361 363 362 359 358 354 359 358 355 355 363 357 365 371 368 358 351 348 353 365 362 348 349 360 355 358 351 349 353 348 358 355 355 359 358 353 355 358 365 362 359 356 355 355 352 349 347 347 345 344 344 342 344 343 343 344 345 348 349 348 347 344 340 338 342
335 334 333 338 338 339 341 345 345 340 339 338 346 344 358 349 348 350 356 353 358 365 358 359 358 357 355 353 352 353 350 348 349 362 362 356 355 358 350 352 345 356 343 350 348 356 361 354 345 340 347 350 350 350 350 350 350 348 344 346 346 345 346 345 346 346 347 346 345 345 344 344 344 345 344 344 344 346 347 347 346 343 344 341 338
331 334 337 338 339 341 342 342 342 342 340 341 349 341 353 351 355 351 358 358 363 364 359 356 357 354 352 349 351 350 347 346 349 356 358 358 357 355 349 344 340 340 343 341 353 344 348 354 349 347 347 346 349 347 346 345 348 349 350 352 351 355 354 352 349 348 347 348 348 347 345 343 345 344 344 344 344 345 344 343 343 343 344 342 343
334 335 335 338 341 342 346 345 342 343 343 338 339 344 349 348 350 365 362 361 358 360 356 356 356 351 346 346 345 348 347 356 367 371 359 347 341 340 340 343 339 345 348 350 349 344 347 346 355 345 343 347 347 346 350 355 357 354 351 346 347 349 347 349 352 352 351 350 348 346 347 346 346 345 345 344 344 344 343 343 343 346 348 359 354
337 334 334 336 338 339 342 345 344 342 340 339 338 338 337 353 361 367 367 367 366 360 357 356 357 351 343 347 349 358 358 356 363 364 356 343 341 340 340 338 339 341 349 349 350 346 345 342 337 337 338 339 340 343 345 346 350 350 348 346 343 348 347 349 348 346 344 345 347 346 347 348 349 349 348 350 349 349 347 345 345 350 354 359 359
337 335 337 338 338 337 340 343 345 345 341 340 339 337 338 349 355 359 358 363 367 368 367 367 366 366 363 352 347 361 366 362 363 362 359 345 342 340 337 337 349 350 356 347 344 347 349 344 341 343 340 342 346 346 345 351 357 356 354 352 350 350 348 345 345 346 345 344 346 348 348 348 350 348 347 348 349 349 349 350 350 355 361 365 359
337 333 333 337 338 337 339 340 339 340 340 339 339 342 341 347 352 356 355 360 367 368 371 371 371 366 363 364 367 362 366 365 361 351 348 344 341 340 342 354 341 357 351 342 345 344 344 346 343 342 344 344 353 360 352 352 350 350 349 347 345 346 347 348 349 349 349 348 347 347 347 345 348 348 348 347 346 347 348 349 350 355 360 362 362
333 333 334 339 340 340 339 341 340 339 341 337 341 341 345 355 357 362 361 364 368 371 374 374 371 368 366 366 369 368 363 363 359 357 351 345 343 346 353 349 350 351 350 347 343 343 347 349 349 348 350 344 346 347 349 349 348 348 348 347 345 344 344 344 344 345 347 349 346 346 347 349 349 346 346 347 348 349 349 349 349 351 352 357 358
335 339 340 341 339 341 342 340 341 341 359 356 361 359 353 358 363 364 366 368 369 373 374 372 369 364 364 367 368 367 363 361 358 355 355 349 346 347 353 359 362 356 345 347 348 346 349 358 352 347 347 348 348 348 346 346 348 350 350 349 349 347 345 345 346 347 346 346 345 346 346 348 348 347 347 347 347 349 349 350 349 350 353 356 357
339 337 349 342 341 338 343 342 344 349 360 359 361 370 361 358 358 365 368 370 371 375 373 372 369 367 365 365 364 362 358 355 346 350 349 351 354 353 357 357 357 353 353 351 350 350 348 348 346 344 344 347 350 352 353 354 354 353 351 350 349 350 349 349 349 350 352 350 349 348 348 348 349 347 347 346 347 348 348 348 348 350 350 351 355
350 339 346 345 342 348 353 347 351 350 351 359 364 360 364 360 365 368 370 373 375 373 373 370 370 366 365 361 361 360 356 356 355 355 354 352 359 363 362 361 361 360 360 358 355 352 347 345 346 348 346 347 349 349 349 348 348 348 347 347 348 350 351 351 350 350 351 351 349 349 350 350 349 347 346 347 349 349 349 348 349 350 353 354 355
352 351 355 356 348 351 366 357 356 353 359 359 360 363 366 369 369 372 373 374 374 371 370 369 368 365 364 360 356 357 358 357 358 358 358 359 360 360 360 359 360 359 359 357 355 353 351 348 348 350 350 351 350 351 351 351 350 350 350 350 350 350 351 351 351 351 350 350 350 349 349 350 349 349 348 347 348 348 348 348 350 350 351 354 352
349 351 356 358 355 357 361 363 363 361 359 360 358 355 352 360 369 370 372 370 368 369 369 367 366 365 363 356 356 356 359 360 361 362 362 361 360 360 360 362 362 360 358 357 355 354 353 352 352 351 351 352 352 352 352 352 352 352 352 352 352 351 350 350 351 351 351 351 349 350 350 350 350 349 349 349 350 348 348 347 349 349 349 350 351
356 358 359 355 354 357 357 358 359 358 354 351 351 350 351 350 358 370 370 370 370 368 367 367 366 364 365 364 364 364 365 366 366 365 363 360 360 362 363 363 362 359 356 355 355 355 354 353 354 353 353 352 350 349 349 350 350 351 352 351 351 350 349 349 349 350 350 351 351 349 348 349 351 352 351 351 351 351 348 346 347 349 348 350 353
348 353 361 361 361 361 360 360 358 356 353 349 349 349 349 352 357 367 369 369 370 366 365 365 364 363 365 366 363 360 361 362 361 361 362 362 361 360 358 357 357 357 357 357 356 356 355 353 351 351 351 351 350 350 352 351 351 351 350 349 349 349 350 349 348 348 349 349 349 349 350 351 350 351 351 351 350 349 348 348 347 347 346 346 349
342 347 353 361 363 362 361 359 357 356 352 351 351 348 347 356 362 363 366 366 365 362 363 362 363 364 364 363 359 359 362 361 362 362 361 360 359 357 357 356 356 356 355 355 354 353 352 352 351 350 350 349 349 349 349 343 343 345 350 349 348 347 348 347 347 346 346 346 347 348 348 350 350 351 351 348 346 345 345 344 344 345 347 347 345
347 346 346 353 358 360 360 360 360 359 358 359 356 359 361 360 363 362 365 365 362 359 357 357 359 359 359 360 360 360 359 358 358 357 357 357 356 355 354 353 353 353 353 353 352 351 351 351 350 349 349 348 347 348 339 340 342 341 347 348 347 346 345 345 346 346 345 344 344 345 346 347 348 348 348 348 349 346 342 340 341 341 342 342 343
349 345 352 356 356 359 361 358 360 361 361 361 362 360 360 360 360 359 358 353 351 351 352 353 356 356 357 357 357 356 356 356 356 356 355 354 353 353 352 352 351 351 350 348 348 348 348 348 348 347 346 347 345 343 337 337 337 336 338 347 345 345 345 344 345 345 345 345 345 345 345 346 346 348 349 347 347 348 348 345 342 341 340 340 337
345 348 354 356 356 357 358 359 358 358 355 357 359 356 355 357 357 355 352 351 350 351 353 353 355 355 356 356 355 355 354 354 354 354 353 352 352 351 351 351 350 350 347 347 347 346 346 346 346 345 346 345 345 345 337 336 336 335 335 339 345 345 345 344 345 345 344 345 345 345 344 344 345 346 347 347 347 347 348 348 349 349 349 348 341
346 346 350 356 356 355 354 353 352 350 351 353 354 355 353 355 354 351 351 351 351 354 353 354 354 355 355 354 354 353 352 352 352 352 350 349 348 348 348 348 347 346 345 344 344 344 345 345 345 345 344 343 344 338 334 334 332 331 332 338 344 345 344 344 345 345 345 345 345 345 345 344 344 345 346 347 347 347 347 347 347 346 346 347 347
344 349 352 352 351 351 349 350 352 352 350 349 349 351 351 352 349 349 351 352 351 351 351 352 351 352 352 353 352 351 350 350 349 348 347 346 345 345 345 346 346 345 346 345 345 344 344 344 345 345 344 342 343 334 332 331 329 328 331 340 343 343 343 343 343 344 344 345 346 345 345 344 344 344 346 344 346 348 346 345 344 344 344 345 346
350 350 349 351 352 348 348 351 351 351 352 349 350 349 348 347 347 348 350 349 349 349 350 350 350 350 351 351 350 348 346 345 345 344 343 343 343 343 344 345 343 343 342 342 342 343 343 343 343 343 343 343 343 338 331 327 326 326 331 341 344 342 342 342 342 343 344 344 345 345 345 344 345 345 343 335 336 345 344 343 343 342 343 344 344
346 347 345 346 347 346 347 347 348 350 350 350 349 347 347 346 346 347 348 347 347 347 348 348 348 349 348 347 346 345 343 343 342 341 341 342 342 343 342 343 341 340 340 341 342 341 341 342 342 342 342 342 342 341 329 325 324 324 334 341 342 342 341 341 341 342 342 343 344 342 347 345 345 346 338 333 334 343 343 342 341 340 340 340 341
341 341 342 342 346 344 345 348 347 344 346 347 346 344 343 344 344 345 345 343 343 343 345 345 345 346 345 345 344 344 342 341 340 340 340 340 340 340 341 342 341 340 339 340 339 338 339 340 341 341 343 342 342 340 328 324 322 322 331 340 341 340 339 339 339 340 341 342 343 344 344 343 344 343 332 330 330 339 340 342 342 340 338 338 340
340 339 340 339 344 346 345 346 345 344 346 346 343 341 342 342 342 342 341 341 342 343 345 345 344 343 343 342 342 341 340 340 339 339 340 339 340 340 340 340 340 339 337 337 338 337 337 337 340 341 341 341 341 342 341 327 323 323 323 338 340 340 338 338 338 338 339 340 342 343 344 337 329 327 326 326 326 327 338 341 341 339 337 336 341
339 340 347 345 340 336 340 343 344 345 344 344 342 341 341 341 341 339 338 340 342 343 343 342 341 340 340 340 340 340 339 339 339 338 339 339 340 339 339 338 337 338 338 337 337 337 337 337 339 339 340 341 340 340 340 327 323 322 323 329 338 338 339 338 337 337 337 337 338 340 342 339 328 323 320 319 318 320 326 336 340 340 340 340 342
341 345 342 339 338 340 341 338 341 343 342 341 341 340 339 339 338 337 337 340 342 340 339 340 339 338 338 338 338 339 338 337 338 338 337 336 338 338 336 336 336 336 335 335 335 336 335 335 337 338 339 339 341 341 341 331 325 320 318 318 330 336 339 337 335 334 335 336 338 339 340 338 328 324 322 319 318 318 320 330 334 327 327 329 337
338 337 338 339 339 340 340 342 342 342 342 341 340 338 338 338 335 336 336 337 337 337 338 338 337 336 337 336 337 337 336 335 335 336 335 334 335 335 335 335 335 334 334 333 334 334 334 334 335 336 338 339 340 341 337 339 331 325 323 323 322 328 326 333 332 332 334 335 337 338 339 334 326 320 314 313 312 313 319 324 320 319 321 323 330
339 337 338 340 341 341 341 343 342 342 342 341 340 337 336 335 335 337 335 336 337 336 337 335 333 334 334 334 334 334 334 334 334 334 333 333 332 333 333 333 334 333 333 332 332 333 333 332 332 333 335 336 338 340 341 340 337 327 321 317 316 316 317 327 332 333 334 335 335 337 336 322 313 309 311 313 315 319 324 317 315 318 320 326 331
341 339 341 341 339 340 339 340 340 339 340 340 339 336 334 333 335 337 336 336 336 336 335 333 332 332 331 331 332 332 332 332 333 333 332 331 331 332 331 333 334 333 332 331 331 331 331 331 331 331 332 334 336 338 338 338 335 334 325 321 319 317 317 314 325 330 331 332 327 318 314 313 314 313 313 314 316 319 316 315 316 318 325 329 331
342 340 341 341 339 339 337 336 337 337 337 337 336 334 332 332 332 334 333 334 335 334 332 331 330 330 330 331 330 330 331 332 332 333 332 332 331 331 331 331 331 331 331 331 330 330 330 330 329 330 330 332 332 333 333 334 334 335 332 325 322 323 328 328 328 326 323 320 317 315 314 313 314 317 323 325 326 326 324 323 323 325 327 329 331
341 339 339 339 337 335 335 334 334 335 334 334 331 330 332 334 334 329 327 335 332 331 329 329 329 329 329 329 329 328 329 330 332 331 332 332 332 332 333 331 331 330 330 330 330 330 329 329 328 327 326 326 327 328 328 329 330 327 325 324 324 324 324 323 324 325 324 325 326 324 324 320 319 321 322 322 323 326 327 328 330 331 331 332 333
342 340 339 338 336 335 334 333 333 333 333 331 330 330 329 330 327 326 329 331 330 329 327 327 328 328 328 328 328 330 330 328 329 330 330 331 331 331 331 330 331 330 329 328 328 328 326 323 321 322 322 321 322 322 323 323 321 320 318 318 318 319 320 320 320 322 323 324 325 325 322 323 324 324 323 325 328 329 329 329 331 333 335 335 336
339 339 339 337 335 334 333 331 330 331 331 331 329 328 328 326 326 330 331 329 328 328 328 327 327 327 327 328 328 328 328 328 329 329 331 331 330 330 331 332 334 331 328 324 325 322 321 321 321 320 318 317 317 317 320 315 314 309 309 310 311 314 315 316 318 316 319 319 319 319 319 319 320 320 323 325 328 331 332 333 333 334 336 337 336
339 339 338 336 335 332 331 330 330 331 331 330 328 328 330 329 329 329 330 328 327 327 326 325 325 325 326 325 326 327 327 328 327 327 328 329 330 323 325 331 329 321 314 311 313 317 318 319 318 318 318 316 315 316 311 303 301 300 300 300 301 300 300 304 307 307 310 310 310 311 314 314 315 317 319 322 327 331 332 334 335 335 336 336 335
337 336 335 334 332 330 331 330 330 330 329 327 327 327 329 329 330 329 328 328 327 326 324 324 324 324 325 325 325 325 327 327 327 327 327 327 328 330 306 305 316 317 311 304 302 303 307 312 316 315 317 315 312 306 302 300 299 299 298 298 298 298 299 299 299 302 305 306 307 310 313 316 317 318 319 323 330 332 332 331 330 329 329 329 329
Wind_Speed
11 10 10 11 11 10 5 7 6 9 6 6 7 10 10 8 4 9 6 4 4 8 6 5 5 3 3 6 6 5 1 1 3 5 4 5 3 4 5 3 5 5 3 3 3 4 5 4 3 3 3 3 3 5 5 6 5 4 5 3 6 6 7 6 7 7 6 5 5 8 6 4 7 5 8 8 8 6 5 7 7 7 8 7 7
13 11 11 11 10 11 7 3 9 8 7 8 7 7 7 10 7 7 7 7 5 4 8 7 5 5 5 5 6 4 1 1 2 4 5 4 4 3 4 5 2 2 2 2 3 3 4 4 4 5 3 3 4 5 5 4 2 3 4 4 3 6 7 8 8 5 5 6 6 5 4 4 6 7 9 8 6 5 7 6 6 9 8 8 7
13 13 13 11 12 8 11 9 8 11 11 12 8 8 7 8 5 5 5 7 8 6 8 7 6 5 5 5 5 4 3 4 3 4 4 5 3 3 4 3 2 2 3 3 4 6 6 5 5 4 4 4 4 4 4 5 5 7 5 5 6 6 7 8 7 5 7 5 5 4 6 4 3 4 6 8 9 8 6 7 8 9 13 12 5
13 13 14 13 13 9 12 11 8 10 9 11 11 8 6 3 3 4 4 5 5 6 7 10 8 5 5 2 5 4 4 4 4 2 4 5 5 5 4 3 4 4 6 7 6 6 6 5 5 6 5 3 3 4 5 8 5 6 8 8 7 8 8 8 7 6 5 5 4 4 1 1 6 4 4 1 2 6 8 8 7 9 11 9 6
10 14 15 15 15 14 13 12 12 11 11 10 12 12 10 11 6 3 3 3 3 4 6 3 6 7 4 2 2 3 3 2 1 3 5 5 4 5 8 5 4 6 7 8 7 5 4 4 5 5 5 3 5 6 6 9 10 9 9 8 8 8 8 7 6 8 9 6 5 2 3 4 5 6 4 4 6 8 8 9 7 9 11 9 8
12 10 11 13 14 14 14 14 14 13 13 13 11 12 13 11 10 7 4 5 4 4 7 5 4 7 6 5 4 3 3 4 5 6 7 7 8 6 7 7 6 7 6 6 7 6 5 5 5 4 5 6 6 7 7 8 10 11 10 9 10 11 9 7 8 7 8 7 7 8 6 5 3 2 4 5 2 7 9 9 10 10 10 11 9
12 12 13 14 13 12 13 14 14 13 13 11 11 11 11 10 9 8 6 3 4 4 8 6 6 6 7 8 6 5 5 5 5 7 7 6 4 3 3 2 2 3 6 5 6 5 5 5 3 3 4 5 6 7 8 11 11 10 8 10 10 9 8 9 9 7 5 7 9 11 11 9 9 6 6 6 8 4 6 8 8 9 10 11 11
12 13 13 13 13 14 15 15 14 14 12 11 10 10 9 6 8 8 7 7 6 5 8 8 7 6 5 5 6 6 7 6 7 7 6 4 2 4 3 3 4 5 6 6 7 6 6 4 3 0 3 6 7 9 10 10 9 10 10 5 4 4 3 8 7 6 6 6 7 8 9 11 12 12 11 8 8 8 8 7 9 12 11 11 11
14 13 14 12 14 14 14 13 12 12 11 11 12 10 10 9 7 8 8 7 7 6 5 6 7 6 6 6 5 5 6 3 4 2 2 4 6 5 4 4 4 5 6 5 5 5 5 4 3 1 5 6 8 9 10 11 12 9 5 5 2 5 6 3 3 4 6 6 8 6 8 9 9 9 10 9 8 8 10 9 8 8 10 9 9
16 15 13 12 11 11 10 10 12 11 10 10 11 11 11 9 8 6 7 7 6 5 6 5 5 6 4 2 1 2 5 6 5 5 3 2 4 7 6 4 5 4 5 5 3 4 4 4 6 9 9 10 10 11 11 10 10 8 8 4 1 4 6 4 6 7 9 6 4 6 7 7 8 8 9 10 10 10 10 10 9 9 7 6 7
11 13 13 13 12 11 11 12 8 9 9 11 11 11 8 6 6 6 7 8 8 6 4 7 6 5 4 3 3 5 6 4 4 5 2 4 5 9 6 4 4 4 2 2 5 6 5 3 5 7 8 9 10 10 10 10 11 9 8 0 3 5 8 9 7 7 6 6 7 6 9 7 8 8 7 8 9 8 8 10 10 8 10 10 9
11 12 14 14 10 12 13 10 10 12 11 11 4 8 7 4 9 10 9 8 7 6 6 6 8 6 6 8 7 8 6 4 6 6 8 7 9 10 9 6 3 3 2 3 3 1 2 2 4 6 8 7 8 7 8 10 9 9 5 1 7 9 10 8 8 9 11 7 8 9 9 8 7 8 10 8 6 7 8 10 9 7 9 9 9
13 10 13 13 12 12 13 12 11 9 6 5 12 9 12 7 10 10 6 6 5 5 6 6 7 10 11 11 11 9 10 12 9 5 9 10 10 11 5 2 4 5 5 5 4 6 4 6 7 7 7 7 9 10 9 7 7 7 8 9 8 5 3 4 4 7 8 8 8 8 8 8 8 10 11 10 10 5 3 6 8 9 9 8 9
10 11 6 2 9 9 8 11 8 10 10 10 8 15 10 8 11 10 9 8 6 6 7 9 8 8 9 11 10 12 10 9 6 7 8 6 5 2 5 6 6 7 7 7 5 6 4 7 8 8 8 8 7 7 8 7 6 7 6 6 7 5 6 7 8 10 9 10 10 9 9 9 9 10 11 10 6 2 6 8 7 8 9 9 7
12 9 12 9 6 9 4 8 3 3 6 10 16 19 7 4 11 10 10 9 9 8 5 8 8 9 6 7 6 6 9 7 5 5 4 1 4 8 7 8 8 9 9 8 6 3 2 2 3 4 5 5 5 5 7 6 5 6 6 7 7 7 7 8 9 11 12 12 11 10 9 9 9 9 9 9 9 7 8 9 5 6 9 9 8
16 11 15 14 14 11 4 7 7 4 3 11 11 12 9 8 7 12 11 10 10 9 8 7 7 8 7 7 8 8 6 7 7 6 6 6 8 7 4 2 2 3 4 2 2 2 3 4 3 4 3 4 4 4 4 4 5 4 4 4 6 6 6 8 8 11 12 12 12 10 9 10 9 9 9 8 8 8 8 9 7 7 7 9 7
12 16 15 15 15 12 10 10 6 7 12 12 6 4 2 7 8 9 11 9 10 8 9 7 8 8 9 13 12 7 8 8 6 11 10 9 7 5 6 4 5 3 4 4 6 3 1 2 4 6 5 4 5 6 6 6 7 7 8 7 8 9 8 8 8 8 9 11 10 11 10 9 8 8 9 10 8 6 8 8 8 9 8 8 7
9 8 12 9 15 13 13 14 14 14 16 7 4 7 4 5 5 8 10 12 9 8 8 10 11 12 10 10 9 6 7 9 8 6 10 10 9 7 7 7 8 9 6 5 2 4 4 4 4 5 5 5 5 7 7 8 6 7 6 5 5 4 5 5 6 8 10 9 10 11 10 10 9 9 9 10 9 7 8 9 8 9 7 9 7
9 13 11 10 14 12 10 11 12 13 13 14 12 8 7 9 9 5 7 12 11 9 8 10 13 11 9 9 9 9 7 4 1 4 5 5 6 5 4 4 6 5 4 5 5 4 4 4 3 4 5 5 6 6 5 4 4 5 6 7 7 7 7 7 6 7 9 9 8 10 9 9 9 10 10 11 10 8 7 6 6 6 5 2 3
6 8 11 13 15 16 15 12 11 14 13 12 12 10 12 8 6 4 6 8 10 11 12 12 9 7 8 7 6 5 7 8 5 4 4 8 8 7 7 8 6 5 3 3 2 4 4 5 8 7 8 7 6 6 5 6 5 6 6 6 7 6 7 6 6 7 9 8 8 8 8 7 7 7 8 7 8 8 9 9 7 5 5 4 4
6 8 8 15 15 16 17 16 17 16 12 8 8 11 11 10 8 7 6 6 8 9 9 8 7 6 6 6 6 1 4 7 6 4 4 7 6 7 6 6 3 2 3 4 4 5 4 5 6 6 8 7 6 7 7 4 3 4 4 6 7 6 8 8 8 9 10 10 7 7 7 8 8 8 8 8 8 9 8 7 6 6 4 2 4
8 12 14 17 15 16 16 14 9 9 8 7 11 9 9 12 11 9 9 6 7 8 8 7 6 5 5 4 4 1 0 4 5 5 7 7 8 6 6 4 5 3 3 6 6 6 6 6 8 8 6 6 4 3 4 4 4 5 7 6 8 8 8 9 7 7 8 8 8 8 9 11 8 8 8 9 9 8 7 7 6 5 4 3 4
11 13 11 15 15 13 14 12 11 12 12 15 10 12 8 12 10 9 9 11 9 8 7 7 6 5 6 4 3 2 1 5 5 4 6 8 8 6 4 4 3 3 4 5 7 8 5 5 5 4 4 6 6 6 5 5 6 7 8 8 10 11 10 10 10 9 7 6 8 7 8 7 7 9 9 8 7 7 6 8 8 7 6 5 5
10 8 6 9 13 14 12 14 12 12 2 3 4 5 9 12 9 8 9 9 9 8 7 7 6 7 6 5 3 3 3 3 5 5 6 8 7 5 4 3 3 3 7 6 7 8 6 4 4 5 5 5 6 7 8 8 8 8 8 9 10 10 11 11 10 9 9 8 8 8 8 7 7 8 7 6 6 6 7 7 8 7 6 5 5
8 8 4 11 12 14 13 14 13 9 6 4 4 1 3 8 9 9 8 8 7 6 6 6 6 6 5 4 4 4 4 5 7 6 8 8 6 6 5 6 6 7 7 6 8 8 8 7 8 8 8 7 6 6 6 6 6 6 7 9 10 9 10 10 10 9 9 9 9 9 9 8 8 9 8 8 7 7 7 6 7 6 7 6 5
4 10 8 11 12 9 10 13 9 9 7 5 3 1 2 5 7 8 8 7 6 5 5 5 5 5 4 5 5 5 6 6 6 6 6 6 5 4 4 4 4 5 5 6 7 7 10 11 9 9 8 7 7 7 8 8 9 9 10 9 10 10 10 10 10 10 10 9 9 9 9 9 8 8 8 8 7 8 7 7 7 6 6 6 4
0 4 5 6 11 10 7 10 7 6 6 6 5 4 4 3 6 6 5 5 5 5 5 5 5 5 4 5 5 5 5 6 6 7 7 6 7 7 6 7 6 7 7 7 7 9 8 10 9 8 9 8 9 9 8 9 9 9 9 9 9 10 10 9 9 10 10 10 10 10 9 9 9 9 9 9 9 9 8 9 8 7 7 6 5
7 8 7 6 9 9 8 9 9 8 8 6 4 5 5 8 1 5 5 5 5 5 4 4 4 4 4 6 5 5 5 5 5 6 7 7 7 7 8 7 7 7 7 8 9 9 8 7 8 8 9 9 9 8 8 8 8 9 9 9 9 9 9 9 9 10 10 9 10 9 8 8 9 8 8 8 8 8 7 8 7 7 7 8 7
6 4 6 7 7 9 9 10 8 9 8 5 4 5 4 2 11 4 4 5 4 4 4 4 4 4 4 5 4 3 4 4 4 4 5 6 7 7 6 6 6 7 7 8 7 7 8 7 7 8 8 8 9 9 8 8 7 8 8 8 9 10 10 10 10 10 9 8 7 8 8 8 10 14 14 12 11 10 8 8 7 6 7 7 7
4 5 5 7 7 9 9 9 8 10 8 5 4 2 2 9 10 5 5 4 3 3 3 3 3 3 4 4 4 5 5 5 6 7 6 6 6 6 7 7 8 8 8 8 8 8 8 9 10 10 9 9 9 7 9 14 12 8 8 8 8 8 8 8 8 8 9 9 9 9 8 14 14 14 13 13 13 14 14 11 9 8 9 9 8
4 6 7 4 6 8 9 8 7 8 7 5 4 6 11 10 6 5 4 4 2 3 2 2 3 4 4 4 4 5 5 5 5 6 6 6 7 7 7 7 7 7 7 7 8 9 9 9 9 9 9 9 8 8 13 13 13 14 10 9 9 9 9 9 9 9 9 9 9 9 8 10 12 12 12 15 16 17 17 17 18 17 14 11 9
4 4 2 1 4 6 7 7 9 9 10 10 10 10 7 4 3 3 4 3 2 1 1 2 3 3 3 4 4 4 5 6 6 6 7 7 7 8 8 8 9 9 9 8 9 10 9 9 8 8 8 9 9 11 13 12 12 13 11 9 9 9 8 8 8 9 8 8 9 9 8 7 8 9 10 10 12 15 17 18 19 19 19 20 18
9 7 1 6 5 6 7 8 7 7 6 6 5 4 5 5 4 4 3 2 1 1 1 2 3 3 4 4 5 5 6 6 6 7 7 7 8 8 8 8 9 8 9 9 9 9 9 9 9 9 10 9 10 12 13 13 13 13 14 11 9 9 9 9 9 9 9 9 8 9 9 8 8 12 11 10 10 11 13 15 15 17 18 19 19
7 7 5 6 6 6 6 7 7 8 8 7 7 6 5 4 4 3 2 1 0 1 2 3 4 4 4 5 6 6 6 7 6 7 7 7 8 8 8 8 8 8 9 9 10 10 10 9 9 10 10 9 10 11 13 13 12 12 13 11 8 10 10 10 10 10 9 9 9 9 10 10 9 9 9 10 9 9 9 9 9 8 8 12 17
8 7 7 7 8 9 8 8 7 8 8 7 6 4 3 3 3 2 1 1 1 3 3 4 4 5 5 6 6 6 7 6 6 7 7 8 9 8 8 7 8 8 8 8 9 9 9 9 9 9 9 10 9 12 12 12 11 11 12 10 7 9 9 9 9 10 10 11 11 11 11 12 11 10 9 10 10 9 9 9 9 10 10 10 9
5 8 9 8 8 8 8 7 6 7 6 6 5 4 3 3 1 1 1 2 3 3 4 5 6 6 6 6 6 6 7 7 7 7 7 8 8 8 9 7 8 8 8 8 8 8 9 9 9 9 9 10 10 12 12 12 12 12 12 7 7 9 9 9 10 10 10 10 11 11 11 11 12 11 13 16 14 10 10 10 11 11 11 11 11
7 9 10 9 8 8 8 7 7 6 5 6 4 4 3 2 2 2 3 3 4 5 5 5 6 5 5 6 6 7 7 8 8 8 8 8 8 8 8 7 9 8 9 9 9 9 8 9 10 10 10 10 10 10 12 12 12 13 9 6 7 8 9 10 10 10 10 11 11 11 11 11 12 12 14 16 15 14 11 11 12 12 12 11 11
10 10 9 8 7 8 8 7 8 7 6 4 3 2 2 2 2 3 4 4 5 5 5 5 5 6 6 6 7 7 8 8 8 8 9 8 8 8 8 7 8 9 9 9 9 9 9 9 10 10 10 10 9 10 13 13 13 13 10 7 8 8 10 10 10 10 10 10 12 17 15 12 12 12 13 13 15 12 11 11 11 13 14 14 13
9 9 8 7 5 7 8 8 7 7 5 3 2 2 3 3 4 4 4 5 5 5 5 6 6 6 7 7 7 7 8 9 9 9 9 9 9 8 8 8 8 9 10 10 10 10 9 8 8 9 12 12 9 9 12 13 13 13 10 6 7 8 10 10 9 10 10 10 10 12 16 15 14 14 16 16 15 12 10 11 12 12 13 15 13
10 8 6 5 6 7 7 6 6 5 3 4 4 4 4 4 4 5 5 6 5 5 6 6 6 7 7 7 7 8 8 8 9 9 9 9 8 8 8 8 9 9 9 9 10 10 11 10 9 10 9 9 9 9 9 12 11 11 10 7 7 8 9 10 10 10 10 9 9 9 11 14 15 15 17 17 16 15 11 12 11 11 11 14 12
8 7 5 4 5 7 7 7 4 3 3 4 4 3 4 4 5 5 6 5 5 5 6 6 6 7 7 8 7 8 9 9 9 9 8 8 8 8 8 9 9 8 8 9 10 10 10 10 9 9 9 8 8 9 9 11 11 11 12 10 6 9 9 10 10 10 10 10 9 8 8 11 14 13 12 13 14 16 16 11 12 12 12 13 12
9 7 5 5 5 6 6 6 5 4 5 4 4 4 5 5 5 6 7 6 5 6 7 7 8 8 8 8 8 8 8 8 8 8 8 9 8 9 9 9 8 9 10 11 10 9 9 10 9 8 9 9 9 12 9 11 13 13 10 7 4 7 7 6 5 7 9 10 10 9 9 10 12 11 13 14 16 16 16 9 12 15 17 16 13
5 5 5 5 4 5 5 4 4 5 4 4 5 5 5 5 6 7 7 7 7 7 6 7 8 8 8 8 8 9 8 7 8 9 9 10 9 9 9 9 9 9 10 11 10 10 9 9 9 9 8 8 8 8 11 9 8 5 5 6 9 8 9 7 7 8 9 9 10 11 12 14 14 12 9 9 8 10 8 9 15 15 15 16 13
6 6 6 4 4 3 3 3 4 4 4 4 4 5 5 6 7 6 8 8 7 7 7 7 8 8 9 9 9 9 8 8 9 9 9 10 10 9 9 9 9 8 8 10 9 9 10 10 10 9 8 8 8 7 7 7 6 9 12 11 9 10 7 5 6 7 7 8 9 10 10 12 12 13 14 13 12 11 10 12 11 13 12 13 9
5 5 4 4 3 3 3 4 4 5 4 4 4 5 7 8 7 7 7 7 7 7 6 7 8 8 8 9 9 9 9 9 9 9 9 9 10 10 10 8 8 9 9 10 10 9 10 10 9 10 9 8 7 7 6 7 10 10 10 9 7 6 6 5 6 7 8 8 9 13 15 17 17 18 19 19 18 19 20 18 19 18 15 9 8
4 3 3 3 3 4 4 5 5 6 5 5 5 7 8 7 8 7 8 8 7 8 7 7 8 8 9 9 10 10 10 9 9 8 9 8 9 9 9 9 9 9 9 9 9 10 8 9 8 7 8 7 8 8 9 8 8 9 8 10 11 11 12 10 11 12 14 16 18 18 18 17 16 14 10 9 9 12 17 20 21 17 11 10 9
4 3 2 3 4 4 5 5 6 6 6 6 7 7 7 7 8 8 10 5 7 7 8 8 8 9 9 9 10 9 9 9 8 8 7 7 8 8 8 8 9 10 9 7 8 8 9 8 8 8 8 8 8 7 8 8 6 7 8 10 11 11 13 13 11 10 10 9 10 10 8 8 9 13 15 17 19 19 15 13 11 10 9 10 11
4 3 3 4 5 5 6 6 6 6 6 6 7 7 8 9 11 11 9 9 9 9 10 10 11 9 9 9 9 12 11 8 8 8 8 8 9 10 9 9 8 8 10 10 8 7 7 7 7 8 8 9 9 8 9 8 9 10 11 10 11 11 11 10 11 10 9 9 9 8 10 10 10 9 9 9 10 9 11 10 9 8 8 9 11
4 3 4 4 4 5 6 6 6 5 5 5 7 9 9 11 10 12 12 11 9 10 10 11 10 8 8 8 9 9 8 8 8 9 8 8 8 10 10 10 10 6 6 6 5 6 6 6 6 7 8 10 10 10 10 12 13 14 13 11 10 10 10 10 12 13 12 9 9 9 9 9 8 9 9 9 9 9 9 8 9 8 8 8 7
3 3 5 5 6 6 5 5 5 5 6 7 9 8 8 10 11 9 10 10 11 10 10 10 9 8 8 8 8 8 9 9 9 9 9 10 10 12 8 6 6 10 13 11 9 6 5 6 7 6 7 8 9 10 15 17 16 16 17 16 16 16 17 15 16 17 12 10 9 9 8 8 9 9 10 10 9 8 8 5 3 3 5 5 2
4 4 5 5 5 5 5 5 6 7 8 9 8 8 8 9 9 9 10 10 9 9 9 8 8 8 9 9 9 9 9 8 8 8 7 9 10 11 14 13 11 9 12 13 13 11 11 8 5 6 7 9 11 14 15 16 15 15 15 14 14 14 14 13 12 8 6 7 6 5 6 5 7 9 10 10 6 3 3 7 7 8 7 7 7
Wind_Direction
172 183 194 184 194 160 214 152 227 166 197 220 204 180 183 204 181 145 167 206 158 155 160 169 173 178 201 196 209 215 55 18 248 245 242 252 260 259 298 269 213 212 180 175 181 221 257 303 323 266 243 218 213 233 255 271 271 262 269 277 276 268 261 266 265 274 270 277 277 274 277 293 304 274 231 239 241 252 269 279 279 245 227 230 193
172 181 189 194 197 175 173 199 198 197 183 217 207 205 181 197 198 167 165 171 210 200 143 165 177 181 195 207 205 160 154 141 244 255 238 221 259 258 258 246 357 74 123 160 171 219 234 239 248 258 276 248 225 216 233 229 245 260 266 272 257 265 266 266 273 276 266 267 277 284 291 289 281 300 309 295 274 265 273 283 284 289 276 228 190
182 178 183 196 202 166 166 201 199 206 195 208 219 208 197 194 190 169 184 175 181 205 146 167 172 184 199 190 205 177 169 200 222 259 311 299 285 288 297 282 201 190 177 182 194 219 220 218 239 252 244 236 237 231 238 249 252 257 241 238 255 253 262 260 257 246 269 276 294 313 284 302 300 295 277 264 253 254 260 265 277 288 285 268 215
190 176 181 191 198 178 177 192 201 205 208 201 208 222 227 223 179 176 199 201 177 191 161 164 170 173 210 210 153 201 171 171 227 245 255 246 244 260 264 236 211 227 196 206 213 220 208 209 230 244 246 237 254 242 235 246 233 233 240 241 236 255 254 257 250 242 237 254 257 243 324 222 293 259 256 269 291 274 260 260 258 255 265 280 270
198 185 180 186 190 191 181 188 197 207 215 214 200 207 213 214 217 186 186 218 182 130 147 157 138 166 169 196 179 178 118 158 196 253 235 224 236 228 230 237 213 214 218 217 219 221 207 214 230 242 258 245 242 242 227 238 248 246 238 235 233 239 250 252 252 247 242 224 230 198 237 235 238 268 293 281 267 269 265 267 273 281 275 270 276
190 195 196 188 191 188 188 193 193 201 211 216 214 207 203 206 198 181 187 204 187 186 164 149 145 152 155 170 167 176 201 188 213 234 234 240 221 225 248 242 238 231 235 231 221 218 198 217 224 219 243 258 244 256 251 231 237 245 239 238 240 227 232 243 252 238 246 246 225 222 226 259 276 316 335 286 290 278 288 284 267 265 276 276 270
192 183 197 200 184 194 193 199 197 207 206 219 223 218 215 196 176 178 175 163 197 167 165 164 150 153 171 185 193 204 216 237 243 243 246 237 225 219 203 227 226 243 251 229 216 223 201 206 205 184 244 267 280 269 255 252 246 251 250 233 234 244 210 224 235 254 254 244 246 238 236 235 242 254 254 280 283 261 258 273 274 274 280 282 281
182 192 197 205 191 197 197 198 202 208 205 205 222 231 222 214 172 180 161 170 194 204 161 173 166 163 170 195 202 212 228 228 212 235 237 250 276 253 242 218 213 215 221 229 216 215 206 179 125 71 272 260 260 262 269 267 263 250 246 263 284 313 209 209 234 246 248 260 257 257 256 253 253 260 253 249 260 283 280 269 272 278 274 267 266
177 192 197 200 198 199 196 195 199 205 208 208 205 217 228 227 181 155 169 168 191 174 183 173 159 163 168 192 198 216 241 260 210 137 16 340 293 271 241 238 223 216 231 235 234 245 165 163 139 214 259 263 256 261 263 267 268 268 282 283 49 248 246 309 259 247 255 260 273 263 263 262 264 261 267 253 250 259 270 277 278 272 270 272 269
182 185 190 195 196 190 208 214 187 200 201 219 222 206 214 218 144 175 155 172 167 184 185 143 130 148 154 93 13 258 241 232 190 191 176 267 295 280 268 242 256 234 211 191 212 271 249 190 173 181 216 241 242 241 248 261 271 275 267 263 259 17 345 246 239 231 240 243 253 275 279 271 265 268 256 258 254 246 261 267 270 277 281 278 283
186 177 184 185 191 189 193 218 183 209 215 212 220 208 212 188 110 192 178 170 178 167 175 136 129 98 107 119 184 240 272 296 300 97 70 349 300 276 252 257 242 264 271 223 198 209 215 209 232 234 225 227 236 243 249 252 260 270 283 171 225 224 244 241 235 253 258 241 252 250 260 272 276 258 256 259 270 269 260 255 258 257 265 271 256
187 182 183 176 186 194 184 205 203 203 216 221 102 11 251 127 184 176 150 162 147 163 177 159 139 161 160 171 195 227 245 260 249 202 162 182 234 273 268 252 253 265 269 259 207 228 133 219 252 262 255 253 250 247 241 246 252 255 243 61 256 226 226 234 246 242 238 229 234 248 255 244 254 272 268 264 256 266 267 274 273 276 270 266 275
186 184 184 175 185 191 184 197 198 182 215 205 92 217 235 192 159 132 130 157 160 179 170 158 171 176 182 186 191 199 208 219 227 232 165 190 188 218 232 227 242 255 234 248 234 220 232 213 213 219 224 227 234 242 250 262 270 272 268 258 266 275 251 251 249 250 258 256 248 247 250 247 234 244 255 256 260 267 309 282 262 266 266 278 281
189 194 131 119 174 177 198 186 188 164 214 120 125 254 209 201 142 159 157 161 167 181 184 174 189 200 192 192 196 184 199 212 202 219 236 235 157 212 204 216 222 232 239 226 231 245 238 239 233 230 232 237 244 244 246 245 243 252 258 264 272 287 294 291 288 286 273 270 272 267 251 249 255 258 263 261 251 72 274 269 280 276 271 267 271
201 194 133 198 194 185 195 149 154 174 219 176 174 219 195 185 142 153 162 167 167 184 183 174 192 207 208 200 200 198 199 202 185 212 246 129 240 223 213 216 221 214 218 225 223 223 238 259 282 290 283 281 280 273 268 262 240 228 227 229 229 234 248 256 261 267 268 266 262 257 257 257 257 253 253 254 258 232 219 235 219 272 282 277 268
195 177 165 181 183 179 161 87 60 41 214 262 233 190 185 148 157 163 171 169 162 171 199 197 193 205 189 211 221 205 183 196 178 181 192 213 218 243 244 234 296 317 270 257 231 253 243 237 252 274 289 303 306 310 308 301 297 285 258 241 241 242 243 240 246 257 262 264 267 269 270 271 272 268 260 253 241 236 239 247 223 226 243 264 265
170 172 177 168 177 167 139 118 132 193 229 215 222 187 114 136 174 172 179 173 162 168 196 208 197 222 200 205 215 212 203 215 202 187 200 203 217 232 240 232 243 265 276 252 234 192 308 311 283 283 284 277 271 267 265 266 266 264 269 270 268 264 257 262 269 276 285 283 280 276 271 264 258 264 271 271 264 240 231 233 235 237 239 255 259
201 170 130 171 149 157 132 146 173 212 214 199 146 205 158 177 200 215 169 158 154 178 189 203 214 216 221 222 208 218 227 207 206 208 182 199 203 205 218 219 224 230 215 266 351 291 248 239 242 244 252 265 268 270 263 261 264 267 258 255 261 269 261 254 260 267 268 267 270 272 275 275 272 269 265 260 257 252 252 251 252 252 245 249 251
187 141 170 168 144 143 139 164 191 214 203 194 199 206 172 187 213 182 163 150 162 176 189 216 215 214 216 215 213 207 219 252 233 177 193 236 249 256 278 302 293 269 248 224 220 233 239 243 249 262 262 255 250 254 260 255 240 246 260 267 261 249 250 248 239 245 258 263 262 267 272 276 281 284 287 290 299 298 284 264 252 260 268 259 221
162 162 159 144 144 150 158 175 200 219 204 187 191 195 209 173 166 163 167 160 172 187 186 214 231 244 232 199 210 201 214 210 191 167 186 214 226 230 231 244 264 301 311 333 291 274 283 278 280 282 278 276 280 289 298 297 302 300 294 289 293 306 300 287 276 271 270 266 271 275 276 281 284 283 277 282 287 289 293 294 291 250 230 202 164
160 125 142 151 166 171 171 181 199 215 177 185 196 194 188 155 171 170 203 182 176 182 191 202 224 248 280 279 262 262 175 136 142 177 188 216 250 266 269 264 258 273 335 312 296 279 274 282 276 278 281 274 266 260 262 271 276 279 282 287 289 280 274 272 267 266 266 265 265 267 265 262 265 268 271 273 271 270 272 276 283 289 261 185 204
149 161 192 167 178 180 174 178 195 216 158 190 226 171 183 160 171 179 174 205 193 194 194 202 210 232 241 240 271 46 55 126 153 184 208 234 244 246 242 255 276 270 274 285 278 282 275 260 258 256 262 276 279 290 291 288 279 282 286 284 277 269 268 268 260 258 258 261 260 262 266 271 270 270 268 265 265 266 270 274 277 275 236 222 201
190 186 187 160 165 175 174 179 192 208 189 193 206 166 169 149 160 173 176 188 196 189 195 195 201 214 223 235 222 204 219 168 185 200 224 234 241 243 258 283 287 280 269 270 276 274 270 267 278 282 282 285 284 279 276 273 270 271 274 277 277 278 275 275 275 272 267 262 260 257 256 253 250 253 255 255 256 262 264 264 266 264 263 233 205
191 159 177 150 162 172 169 178 192 203 153 159 103 153 141 149 156 169 185 192 186 187 185 189 199 210 212 219 218 209 224 233 204 207 223 236 249 261 270 269 261 264 268 260 257 262 256 256 276 284 272 264 261 257 255 252 253 251 251 257 264 268 268 267 269 272 274 272 269 270 268 268 271 273 273 275 266 258 262 267 271 272 266 247 230
150 181 195 176 175 183 169 182 190 181 154 95 37 72 141 152 163 170 187 189 187 182 181 187 201 209 209 210 215 211 224 232 240 224 230 238 242 252 257 263 259 259 261 265 268 273 276 274 272 271 267 253 249 252 252 251 251 247 250 254 256 258 261 262 263 263 262 262 263 263 264 264 267 269 269 269 270 269 266 262 260 262 264 263 255
166 183 190 177 170 171 159 179 173 155 141 123 113 2 180 136 169 175 175 180 173 178 178 189 194 209 217 224 215 213 219 224 232 244 251 250 252 253 264 270 268 258 248 248 258 258 262 263 259 259 270 278 273 272 271 267 263 263 262 262 259 255 256 257 257 257 255 252 254 256 255 256 257 259 264 266 268 268 268 266 266 257 251 257 230
212 186 155 150 158 167 127 120 120 122 104 109 86 56 337 164 160 146 160 161 167 175 184 188 195 211 219 227 236 232 219 221 225 233 238 243 247 252 259 261 255 252 251 255 254 256 254 258 258 258 263 273 276 269 268 267 264 262 262 262 260 257 256 256 257 258 258 256 253 252 255 254 253 251 255 257 259 262 261 262 261 265 267 260 230
203 254 170 133 146 125 113 112 103 93 86 71 68 59 7 343 223 142 155 161 168 183 181 195 202 220 228 235 242 246 243 236 234 235 237 242 246 250 251 252 251 250 252 252 254 253 255 255 258 259 262 262 263 262 259 258 257 253 252 255 259 262 263 260 260 258 258 261 261 260 259 257 255 253 251 253 253 258 259 261 257 259 259 255 236
160 182 104 133 131 126 127 120 113 111 98 83 69 58 32 354 272 160 159 168 169 179 185 198 209 225 235 239 251 272 272 278 278 275 275 271 267 263 257 254 252 255 256 256 258 260 263 265 268 268 267 266 268 268 263 259 259 257 253 254 255 257 259 260 261 263 263 262 264 263 260 255 256 259 253 248 247 247 253 260 259 258 260 257 242
359 281 144 131 128 119 121 117 119 113 117 110 81 51 244 231 229 184 162 162 163 180 190 214 228 252 264 261 255 253 259 270 266 260 263 267 266 266 267 264 262 260 259 258 256 256 260 263 266 265 263 262 261 260 257 255 254 257 258 258 259 261 265 267 267 267 266 263 261 261 261 265 265 265 262 260 255 251 247 245 253 255 256 256 253
298 297 289 101 113 120 119 120 117 116 134 129 134 199 219 223 187 171 172 165 170 177 201 233 255 246 251 251 266 271 258 254 266 270 267 269 268 268 267 265 264 263 263 266 266 265 264 263 263 267 266 265 264 263 261 253 249 249 251 254 253 256 258 260 262 264 265 264 263 261 259 263 263 260 256 250 248 250 250 249 247 247 247 250 258
176 161 299 191 110 109 118 129 133 141 154 155 171 189 183 160 128 100 90 79 90 94 269 265 266 275 271 276 271 271 270 268 266 266 267 267 270 270 269 269 268 268 266 265 265 265 266 267 267 267 267 266 263 262 261 260 254 248 244 249 254 255 257 258 258 256 260 264 265 265 263 259 254 252 256 256 250 243 242 245 247 246 246 245 243
63 34 35 107 122 115 109 109 113 127 140 145 132 103 83 80 89 81 86 97 108 157 259 263 266 273 275 266 264 264 266 266 265 269 272 273 272 272 274 276 275 276 278 273 271 272 271 272 270 267 267 265 268 263 260 258 254 248 244 242 252 255 256 256 257 259 260 261 261 263 265 260 259 259 260 259 258 259 255 249 243 245 246 244 244
110 137 141 116 111 116 109 108 104 97 86 76 77 82 79 77 88 96 72 88 3 286 272 269 271 272 275 275 272 274 276 276 279 280 283 286 288 289 293 294 294 290 284 281 278 274 272 269 267 268 268 269 267 268 264 263 256 246 244 242 243 251 254 258 258 259 261 260 256 258 260 260 257 256 255 256 257 258 258 260 258 252 246 242 243
132 154 130 96 90 93 102 99 96 92 89 87 88 96 115 112 82 66 47 309 277 284 279 285 284 280 277 277 278 280 288 297 303 303 300 295 292 289 287 286 286 286 287 288 289 288 284 279 275 272 273 272 277 276 270 266 260 249 245 243 245 250 254 253 253 255 256 256 256 254 253 256 257 255 252 253 256 254 255 258 262 263 261 262 259
141 118 103 113 108 101 100 98 100 103 99 90 90 81 71 76 19 347 323 329 331 311 296 283 281 281 284 293 304 310 306 303 303 304 304 302 301 299 300 303 299 298 294 291 286 283 281 279 275 272 271 269 269 270 269 265 260 258 250 245 242 250 253 255 254 255 255 254 254 253 254 256 256 255 252 250 251 253 257 259 259 260 263 261 259
93 101 100 93 99 103 103 103 91 84 77 77 63 51 41 7 338 355 356 328 297 284 284 289 291 303 312 321 323 320 319 313 307 304 300 300 301 303 304 305 298 294 291 290 287 284 285 283 282 279 274 272 270 268 268 263 255 252 253 240 244 252 255 255 256 255 256 254 253 250 252 254 255 255 253 250 249 246 251 254 258 262 261 259 259
102 90 100 115 120 135 132 117 116 101 97 88 67 52 12 331 358 342 313 302 299 299 307 313 318 328 332 329 318 307 300 299 300 302 306 305 305 301 299 299 296 300 298 297 296 289 283 279 276 275 273 275 272 263 258 259 256 250 240 243 251 255 256 259 261 261 260 260 257 256 252 253 253 254 255 257 253 244 246 248 254 260 263 263 261
115 121 123 116 116 110 103 95 87 87 77 77 44 360 5 3 335 321 317 311 308 314 324 329 329 325 316 313 313 317 317 317 313 308 307 305 303 301 300 301 298 298 296 293 290 289 288 287 285 284 286 282 281 277 270 266 262 257 250 233 247 256 263 264 269 270 268 264 263 260 254 250 250 251 246 240 235 231 247 244 252 258 260 263 260
104 97 96 111 129 132 122 100 77 51 40 54 359 9 351 330 326 322 312 312 322 334 332 324 323 327 330 326 326 320 314 311 309 307 306 303 303 300 298 301 299 295 295 295 296 296 292 291 289 285 283 280 281 283 279 275 272 268 251 243 254 261 266 271 272 273 271 269 267 267 263 256 245 242 244 247 247 243 243 251 250 252 252 256 260
114 117 128 112 60 39 75 93 82 65 50 31 11 355 343 337 328 317 318 327 335 334 328 332 329 321 318 316 314 311 312 310 309 307 305 301 300 301 302 300 298 298 297 296 294 295 295 292 289 286 284 284 284 287 285 274 273 269 259 240 241 254 262 267 275 278 276 277 272 261 259 249 239 238 240 249 254 256 252 244 247 250 247 255 264
64 51 54 71 78 88 67 66 64 54 40 17 11 353 341 338 328 324 326 329 336 341 335 331 328 322 318 315 310 311 311 310 307 307 307 307 307 307 306 303 302 300 297 295 293 290 289 287 289 292 291 290 287 284 282 279 266 265 275 269 270 271 277 306 299 287 282 277 277 282 281 281 280 277 276 271 263 257 254 248 244 250 257 261 261
89 84 53 59 67 55 54 42 31 43 27 13 7 352 338 339 322 324 328 327 330 321 321 316 310 308 309 309 312 314 315 311 310 311 311 308 308 305 301 298 294 292 291 290 291 293 294 296 292 287 287 287 287 285 286 293 312 4 332 291 253 248 268 260 265 270 271 273 272 273 274 275 282 291 296 295 288 273 267 247 252 258 262 265 265
90 74 80 78 80 67 62 53 49 32 26 14 8 344 339 326 323 345 341 336 325 317 311 310 314 321 324 325 325 322 318 314 310 309 307 306 303 299 295 291 290 291 297 298 296 294 294 293 295 297 299 301 300 311 324 330 310 290 274 272 282 278 285 278 270 273 276 278 279 276 284 306 318 309 298 291 284 277 267 267 264 262 260 264 262
68 67 59 51 42 52 38 47 27 27 16 13 357 337 336 334 347 346 325 307 300 297 313 330 335 331 327 326 323 319 314 309 306 306 303 301 299 299 297 297 305 303 297 295 295 297 298 300 303 309 309 310 318 319 304 307 313 315 313 310 299 284 268 236 256 266 270 269 281 293 300 295 292 289 284 282 278 270 262 257 254 252 251 253 241
114 93 67 56 38 42 39 28 16 22 3 11 350 350 343 341 333 318 316 312 333 347 348 346 336 334 330 324 316 313 308 306 307 307 301 298 301 302 301 306 301 295 297 300 301 303 314 320 310 306 313 324 325 323 318 318 319 325 336 341 333 317 308 292 281 279 272 269 269 268 270 272 271 270 270 264 258 262 258 250 246 242 236 240 230
103 65 31 54 31 32 28 19 11 12 8 353 358 342 333 331 318 329 319 357 18 352 343 332 330 326 321 316 314 312 310 311 312 307 298 298 296 292 294 298 305 308 308 302 303 312 317 328 338 340 328 320 322 325 325 322 341 347 328 323 319 309 299 297 288 280 283 279 277 273 278 286 289 283 279 274 270 270 268 261 252 239 227 227 233
106 77 48 51 36 34 22 13 11 3 358 351 339 338 345 340 332 317 343 6 355 349 338 331 324 323 318 319 312 310 311 312 310 305 305 308 308 313 312 308 301 305 307 313 328 343 6 5 345 337 335 332 326 327 324 333 339 328 317 308 304 300 294 287 285 282 280 280 280 284 285 282 280 282 277 278 265 244 248 246 243 239 233 226 227
78 70 61 52 37 33 23 10 2 352 336 338 349 356 351 325 331 5 9 354 348 340 333 323 322 321 320 317 311 307 309 309 310 308 306 311 309 307 302 300 318 22 34 29 15 23 19 359 352 344 340 330 326 319 322 337 315 306 298 295 292 287 286 280 274 278 281 277 277 277 275 276 271 273 281 278 272 261 248 241 241 236 237 228 216
88 85 62 50 45 28 11 6 343 351 343 3 4 343 343 358 2 352 356 349 339 333 326 324 324 323 318 314 312 311 312 317 317 317 315 309 303 291 281 304 352 65 62 57 50 44 16 10 3 356 348 330 323 320 317 316 308 301 295 287 279 277 275 272 272 271 268 271 267 269 270 270 270 270 268 269 271 262 249 241 243 229 227 229 184
76 63 54 45 36 11 358 351 353 2 359 7 340 335 2 354 359 357 349 345 339 327 327 325 323 316 314 314 315 311 312 308 307 309 312 314 317 330 45 68 96 76 63 53 42 38 28 22 22 0 337 323 320 320 320 313 314 308 299 294 292 292 294 299 289 265 240 230 241 250 267 263 260 256 260 267 282 319 70 83 73 64 52 50 64